Weather in Saint-Denis

Reunion     20°53′33″S   55°28′15″E
temp.,
°C
wind,
m/s
gust,
m/s
humid.,
%
clouds,
%
prec.,
mm/h
press.,
hPa
HPBL,
m
7 august, sun
sun701:00+14se11833 0.1 102262
04:00+14sse118211 0.1 102156
07:00+13sse21800 0.0 102245
10:00+18ene22540 0.0 1022735
13:00+19nne226262 0.1 10201084
16:00+17ne228085 0.8 1020509
19:00+16e119086 1.4 1022244
22:00+15ene118961 2.8 1023204
8 august, mon
mon801:00+15se118632 0.4 1022185
04:00+15se128427 0.4 102291
07:00+14se22869 0.0 102295
10:00+18e22700 0.0 1023646
13:00+19ene227256 0.2 1021810
16:00+16e128793 1.0 1022393
19:00+16e119047 0.8 1023291
22:00+15ese019140 1.0 1024146
9 august, tue
tue901:00+15sse118817 0.1 1024102
04:00+14s11849 0.1 102397
07:00+13s11830 0.0 102462
10:00+18e12645 0.0 1025689
13:00+20ne236239 0.1 10231030
16:00+17nne128075 0.3 1023625
19:00+16ese128566 0.4 1024434
22:00+15ese348977 0.9 1025344
10 august, wed
wed1001:00+14ese348656 0.2 1025390
04:00+14se347946 0.3 1024328
07:00+12se458023 0.1 1025277
10:00+15ese557024 0.1 1026722
13:00+17e446019 0.0 10241038
16:00+16e346217 0.0 1024929
19:00+13ese457721 0.1 1025568
22:00+12se458010 0.1 1026417
11 august, thu
thu1101:00+11se458317 0.1 1026408
04:00+11se568722 0.1 1025282
07:00+11se468526 0.1 1026384
10:00+15ese456719 0.1 1027751
13:00+16ese456846 0.1 1025948
16:00+16ese446749 0.3 1024962
19:00+14ese358242 0.1 1025492
22:00+13ese348326 0.2 1026459